Location: Hall+in+Tirol
(47.2830°N, 11.5170°E)
Time: 08:55:17

Gurwin Techsat 1B - Visible Passes

Search period start: 24 October 2016 00:00
Search period end: 02 November 2016 23:00
Orbit: 812 x 814 km, 98.6° (Epoch: 23 October)

Date Brightness Start Highest point End Pass type
(mag) Time Alt. Az. Time Alt. Az. Time Alt. Az.
24 Oct 11.4 03:32:24 10° NNE 03:32:41 12° NNE 03:32:41 12° NNE visible
24 Oct 11.0 05:13:47 10° NNW 05:13:52 10° NNW 05:13:52 10° NNW visible
25 Oct 11.0 04:50:20 10° N 04:50:42 11° NNW 04:50:42 11° NNW visible
26 Oct 11.1 04:27:09 10° N 04:27:30 12° N 04:27:30 12° N visible
27 Oct 11.2 04:04:07 10° N 04:04:20 11° N 04:04:20 11° N visible
